Location: College Park
(38.9810°N, 76.9370°W)
Time: 20:46:25
(UTC-04:00)

UKube-1 - Visible Passes

Search period start: 24 June 2018 00:00
Search period end: 04 July 2018 00:00
Orbit: 615 x 620 km, 98.4° (Epoch: 24 June)

Date Brightness Start Highest point End Pass type
(mag) Time Alt. Az. Time Alt. Az. Time Alt. Az.
24 Jun ? 03:20:45 43° SSE 03:22:08 89° ENE 03:26:29 10° NNW visible
25 Jun ? 02:01:18 10° E 02:03:04 12° ENE 02:04:51 10° NE visible
25 Jun ? 03:37:20 42° SSW 03:38:32 59° W 03:42:49 10° NNW visible
26 Jun ? 02:16:49 12° ESE 02:19:17 18° ENE 02:22:14 10° NNE visible
26 Jun ? 03:53:56 33° SW 03:54:59 38° W 03:59:01 10° NNW visible
27 Jun ? 02:33:25 18° ESE 02:35:33 26° ENE 02:39:09 10° NNE visible
27 Jun ? 04:10:31 23° WSW 04:11:27 25° W 04:15:03 10° NW visible
28 Jun ? 02:50:01 26° ESE 02:51:50 39° ENE 02:55:52 10° N visible
28 Jun ? 04:27:08 16° WSW 04:27:58 17° W 04:30:48 10° NW visible
29 Jun ? 03:06:37 36° SE 03:08:10 59° ENE 03:12:26 10° N visible
29 Jun ? 04:43:43 10° WSW 04:44:32 11° W 04:45:42 10° WNW visible
30 Jun ? 03:23:13 44° SSE 03:24:33 89° W 03:28:53 10° NNW visible
01 Jul ? 02:03:35 10° E 02:05:28 13° ENE 02:07:20 10° NE visible
01 Jul ? 03:39:49 43° SSW 03:40:56 58° W 03:45:13 10° NNW visible
02 Jul ? 02:19:19 12° ESE 02:21:41 18° ENE 02:24:41 10° NNE visible
02 Jul ? 03:56:25 33° SW 03:57:23 37° W 04:01:25 10° NNW visible
03 Jul ? 02:35:56 19° ESE 02:37:57 27° ENE 02:41:34 10° NNE visible
03 Jul ? 04:13:02 23° WSW 04:13:51 25° W 04:17:26 10° NW visible
